When you browse on this site, cookies collect data to enhance your experience and personalize the content and advertising you see.
Visit our Privacy Policy to learn more. By continuing to use the site, you agree to this use of cookies and data.
  • In United Kingdom
  • List of Countries
  • For 7 days
  • Water Temperature
  • Satellite Maps
  • Weather Map
  • Weather Widgets
  • user-avatar
    Login

    Hourly Weather Kakata

    Today, 20 February, Wednesday

    Time Temperature Precipitation Wind Pressure Humidity
    00:00 +27°C° 0 mm 1 mps 751 mmHg 92%
    01:00 +27°C° 0 mm 1 mps 751 mmHg 92%
    02:00 +25°C° 0 mm 0 mps 751 mmHg 92%
    03:00 +27°C° 0.2 mm 1 mps 751 mmHg 93%
    04:00 +27°C° 0.2 mm 1 mps 751 mmHg 93%
    05:00 +27°C° 0.2 mm 1 mps 751 mmHg 94%
    06:00 +27°C° 2 mm 1 mps 751 mmHg 90%
    07:00 +28°C° 2 mm 1 mps 752 mmHg 87%
    08:00 +29°C° 2 mm 2 mps 752 mmHg 84%
    09:00 +31°C° 0.2 mm 2 mps 752 mmHg 73%
    10:00 +33°C° 0.2 mm 1 mps 752 mmHg 61%
    11:00 +35°C° 0.2 mm 1 mps 752 mmHg 50%
    12:00 +35°C° 0 mm 1 mps 752 mmHg 49%
    13:00 +36°C° 0 mm 2 mps 751 mmHg 49%
    14:00 +36°C° 0 mm 2 mps 750 mmHg 48%
    15:00 +35°C° 0 mm 2 mps 750 mmHg 54%
    16:00 +34°C° 0 mm 2 mps 750 mmHg 59%
    17:00 +31°C° 0 mm 3 mps 750 mmHg 65%
    18:00 +30°C° 0.4 mm 2 mps 751 mmHg 72%
    19:00 +29°C° 0.4 mm 1 mps 752 mmHg 79%
    20:00 +25°C° 0.4 mm 0 mps 752 mmHg 87%
    21:00 +25°C° 1.4 mm 0 mps 753 mmHg 88%
    22:00 +27°C° 1.4 mm 1 mps 753 mmHg 90%
    23:00 +27°C° 1.4 mm 1 mps 753 mmHg 91%

    Tomorrow, 21 February, Thursday

    Time Temperature Precipitation Wind Pressure Humidity
    00:00 +26°C° 0 mm 1 mps 753 mmHg 92%
    01:00 +24°C° 0 mm 0 mps 752 mmHg 92%
    02:00 +24°C° 0 mm 0 mps 752 mmHg 93%
    03:00 +24°C° 0.1 mm 0 mps 752 mmHg 93%
    04:00 +24°C° 0.1 mm 0 mps 752 mmHg 93%
    05:00 +24°C° 0.1 mm 0 mps 752 mmHg 92%
    06:00 +24°C° 0.2 mm 0 mps 753 mmHg 92%
    07:00 +24°C° 0.2 mm 0 mps 753 mmHg 91%
    08:00 +25°C° 0.2 mm 0 mps 754 mmHg 90%
    09:00 +26°C° 0 mm 0 mps 754 mmHg 85%
    10:00 +27°C° 0 mm 0 mps 754 mmHg 80%
    11:00 +27°C° 0 mm 0 mps 754 mmHg 75%
    12:00 +30°C° 0 mm 0 mps 753 mmHg 65%
    13:00 +32°C° 0 mm 0 mps 752 mmHg 55%
    14:00 +36°C° 0 mm 1 mps 751 mmHg 45%
    15:00 +35°C° 0 mm 1 mps 751 mmHg 50%
    16:00 +35°C° 0 mm 2 mps 751 mmHg 54%
    17:00 +32°C° 0 mm 2 mps 751 mmHg 58%
    18:00 +31°C° 0 mm 2 mps 752 mmHg 67%
    19:00 +29°C° 0 mm 2 mps 752 mmHg 75%
    20:00 +27°C° 0 mm 1 mps 753 mmHg 84%
    21:00 +27°C° 0 mm 1 mps 753 mmHg 86%
    22:00 +27°C° 0 mm 1 mps 753 mmHg 87%
    23:00 +27°C° 0 mm 1 mps 754 mmHg 89%

    Day after tomorrow, 22 February, Friday

    Time Temperature Precipitation Wind Pressure Humidity
    00:00 +24°C° 0 mm 0 mps 753 mmHg 91%
    01:00 +24°C° 0 mm 0 mps 753 mmHg 92%
    02:00 +24°C° 0 mm 0 mps 752 mmHg 93%
    03:00 +24°C° 0 mm 0 mps 752 mmHg 94%
    04:00 +24°C° 0 mm 0 mps 752 mmHg 94%
    05:00 +24°C° 0 mm 0 mps 752 mmHg 95%
    06:00 +25°C° 0 mm 0 mps 753 mmHg 88%
    07:00 +28°C° 0 mm 1 mps 753 mmHg 81%
    08:00 +30°C° 0 mm 1 mps 754 mmHg 75%
    09:00 +30°C° 0 mm 1 mps 754 mmHg 72%
    10:00 +31°C° 0 mm 1 mps 754 mmHg 69%
    11:00 +32°C° 0 mm 1 mps 753 mmHg 66%
    12:00 +32°C° 0 mm 1 mps 752 mmHg 63%
    13:00 +34°C° 0 mm 2 mps 751 mmHg 60%
    14:00 +35°C° 0 mm 2 mps 751 mmHg 57%
    15:00 +34°C° 0.2 mm 2 mps 750 mmHg 61%
    16:00 +32°C° 0.2 mm 2 mps 750 mmHg 66%
    17:00 +31°C° 0.2 mm 2 mps 750 mmHg 71%
    18:00 +30°C° 0 mm 2 mps 751 mmHg 77%
    19:00 +29°C° 0 mm 2 mps 751 mmHg 83%
    20:00 +27°C° 0 mm 1 mps 752 mmHg 88%
    21:00 +27°C° 0 mm 1 mps 752 mmHg 90%
    22:00 +27°C° 0 mm 1 mps 752 mmHg 92%
    23:00 +27°C° 0 mm 1 mps 753 mmHg 93%

    23 February, Saturday

    Time Temperature Precipitation Wind Pressure Humidity
    00:00 +27°C° 0 mm 1 mps 752 mmHg 94%
    01:00 +26°C° 0 mm 1 mps 752 mmHg 95%
    02:00 +26°C° 0 mm 1 mps 751 mmHg 97%
    03:00 +26°C° 0.2 mm 1 mps 751 mmHg 96%
    04:00 +26°C° 0.2 mm 1 mps 751 mmHg 96%
    05:00 +26°C° 0.2 mm 1 mps 751 mmHg 96%
    06:00 +27°C° 0 mm 1 mps 752 mmHg 91%
    07:00 +28°C° 0 mm 1 mps 753 mmHg 86%
    08:00 +29°C° 0 mm 1 mps 753 mmHg 81%
    09:00 +31°C° 0.2 mm 1 mps 753 mmHg 72%
    10:00 +34°C° 0.2 mm 1 mps 753 mmHg 63%
    11:00 +36°C° 0.2 mm 1 mps 752 mmHg 54%
    12:00 +36°C° 0.7 mm 1 mps 751 mmHg 53%
    13:00 +36°C° 0.7 mm 1 mps 750 mmHg 52%
    14:00 +37°C° 0.7 mm 2 mps 749 mmHg 50%
    15:00 +35°C° 0.1 mm 2 mps 749 mmHg 58%
    16:00 +34°C° 0.1 mm 3 mps 749 mmHg 65%
    17:00 +31°C° 0.1 mm 3 mps 749 mmHg 73%
    18:00 +30°C° 0 mm 2 mps 749 mmHg 78%
    19:00 +29°C° 0 mm 2 mps 750 mmHg 83%
    20:00 +27°C° 0 mm 1 mps 751 mmHg 88%
    21:00 +27°C° 0 mm 1 mps 751 mmHg 90%
    22:00 +27°C° 0 mm 1 mps 751 mmHg 92%
    23:00 +26°C° 0 mm 1 mps 751 mmHg 95%

    24 February, Sunday

    Time Temperature Precipitation Wind Pressure Humidity
    00:00 +27°C° 0.1 mm 1 mps 751 mmHg 93%
    01:00 +27°C° 0.1 mm 1 mps 750 mmHg 92%
    02:00 +27°C° 0.1 mm 1 mps 750 mmHg 91%
    03:00 +27°C° 0.2 mm 1 mps 750 mmHg 91%
    04:00 +27°C° 0.2 mm 1 mps 750 mmHg 91%
    05:00 +27°C° 0.2 mm 1 mps 751 mmHg 91%
    06:00 +28°C° 0.2 mm 1 mps 751 mmHg 87%
    07:00 +29°C° 0.2 mm 1 mps 752 mmHg 83%
    08:00 +30°C° 0.2 mm 1 mps 752 mmHg 79%
    09:00 +32°C° 0.3 mm 1 mps 752 mmHg 70%
    10:00 +33°C° 0.3 mm 1 mps 752 mmHg 60%
    11:00 +35°C° 0.3 mm 1 mps 751 mmHg 50%
    12:00 +36°C° 0.2 mm 2 mps 751 mmHg 52%
    13:00 +35°C° 0.2 mm 2 mps 750 mmHg 54%
    14:00 +35°C° 0.2 mm 2 mps 749 mmHg 56%
    15:00 +34°C° 0.5 mm 2 mps 749 mmHg 62%
    16:00 +31°C° 0.5 mm 2 mps 749 mmHg 68%
    17:00 +30°C° 0.5 mm 2 mps 749 mmHg 74%
    18:00 +29°C° 0 mm 2 mps 750 mmHg 79%
    19:00 +28°C° 0 mm 2 mps 750 mmHg 84%
    20:00 +27°C° 0 mm 1 mps 751 mmHg 89%
    21:00 +27°C° 0 mm 1 mps 751 mmHg 91%
    22:00 +26°C° 0 mm 1 mps 751 mmHg 92%
    23:00 +26°C° 0 mm 1 mps 751 mmHg 94%

    25 February, Monday

    Time Temperature Precipitation Wind Pressure Humidity
    00:00 +26°C° 0 mm 1 mps 751 mmHg 94%
    01:00 +26°C° 0 mm 1 mps 750 mmHg 95%
    02:00 +26°C° 0 mm 1 mps 750 mmHg 96%
    03:00 +26°C° 0 mm 1 mps 750 mmHg 96%
    04:00 +26°C° 0 mm 1 mps 750 mmHg 96%
    05:00 +26°C° 0 mm 1 mps 750 mmHg 96%
    06:00 +27°C° 0 mm 1 mps 751 mmHg 90%
    07:00 +28°C° 0 mm 1 mps 751 mmHg 83%
    08:00 +29°C° 0 mm 1 mps 752 mmHg 77%
    09:00 +30°C° 0 mm 1 mps 751 mmHg 71%
    10:00 +32°C° 0 mm 1 mps 751 mmHg 65%
    11:00 +33°C° 0 mm 1 mps 751 mmHg 59%
    12:00 +33°C° 0.1 mm 1 mps 750 mmHg 58%
    13:00 +33°C° 0.1 mm 1 mps 749 mmHg 57%
    14:00 +35°C° 0.1 mm 2 mps 749 mmHg 56%
    15:00 +34°C° 0.2 mm 2 mps 749 mmHg 59%
    16:00 +34°C° 0.2 mm 2 mps 749 mmHg 62%
    17:00 +32°C° 0.2 mm 2 mps 749 mmHg 64%
    18:00 +30°C° 0 mm 2 mps 750 mmHg 71%
    19:00 +29°C° 0 mm 2 mps 750 mmHg 78%
    20:00 +27°C° 0 mm 1 mps 751 mmHg 85%
    21:00 +27°C° 0 mm 1 mps 751 mmHg 88%
    22:00 +27°C° 0 mm 1 mps 751 mmHg 91%
    23:00 +26°C° 0 mm 1 mps 751 mmHg 94%
    Show more